Regional Weather Roundup
Issued by NWS Burlington, VT

Home | Current Version | Previous Version | Text Only | Print | Product List | Glossary On
Versions: 1 2 3 4 5 6 7 8 9 10 11 12 13 14 15 16 17 18 19 20 21 22 23 24 25 26 27 28 29 30 31 32 33 34 35 36 37 38 39 40 41 42 43 44 45 46 47 48 49 50
000
ASUS41 KBTV 180630
RWRBTV
VERMONT REGIONAL WEATHER ROUNDUP
NATIONAL WEATHER SERVICE BURLINGTON VT
200 AM EDT THU SEP 18 2014

NOTE: "FAIR" INDICATES FEW OR NO CLOUDS BELOW 12,000 FEET WITH NO
SIGNIFICANT WEATHER AND/OR OBSTRUCTIONS TO VISIBILITY.

* THESE REPORTS ARE NOT UNDER NWS QUALITY CONTROL AND/OR DO NOT
  REPORT WEATHER SUCH AS PRECIPITATION AND FOG.

VTZ001>019-180700-
_____VERMONT_____


CITY           SKY/WX    TMP DP  RH WIND       PRES   REMARKS
BURLINGTON     CLOUDY    56  46  69 S6        29.92S
6HR MIN TEMP:  54; 6HR MAX TEMP:  60;

MONTPELIER     PTCLDY    43  42  97 CALM      29.97S
6HR MIN TEMP:  43; 6HR MAX TEMP:  54;

MORRISVILLE    MOCLDY    48  45  89 CALM      29.93F
6HR MIN TEMP:  46; 6HR MAX TEMP:  53; 6HR PCP: TRACE;

ST. JOHNSBURY*   N/A     46  44  93 MISG      29.92S
6HR MIN TEMP:  45; 6HR MAX TEMP:  53;

MIDDLEBURY*    MOCLDY    52  50  93 CALM      29.94S
6HR MIN TEMP:  51; 6HR MAX TEMP:  56;

RUTLAND*       CLOUDY    45  41  87 SE9       29.96S
6HR MIN TEMP:  45; 6HR MAX TEMP:  54;

SPRINGFIELD    FOG       43  43 100 CALM      29.97S VSB 1/4
6HR MIN TEMP:  43; 6HR MAX TEMP:  50;

HIGHGATE*      CLOUDY    58  48  70 CALM      29.91R
6HR MIN TEMP:  56; 6HR MAX TEMP:  58;

NEWPORT*       LGT RAIN  54  46  75 CALM      29.92S
6HR MIN TEMP:  48; 6HR MAX TEMP:  54;

BENNINGTON     CLEAR     39  37  92 CALM      29.97F
6HR MIN TEMP:  40; 6HR MAX TEMP:  49;

SUTTON*          N/A     48 N/A N/A MISG        N/A
MT. MANSFIELD*   N/A     43 N/A N/A NW18        N/A

_____LAKE CHAMPLAIN_____


CITY           SKY/WX    TMP DP  RH WIND       PRES   REMARKS
BURTON ISLAND*   N/A     61  50  67 SW10        N/A
COLCHESTER RF*   N/A     59  52  77 S16         N/A
DIAMOND ISL*     N/A     55  48  76 SW7         N/A

$$

NYZ007-026>031-035-052-083-180700-
_____NORTHERN NEW YORK_____


CITY           SKY/WX    TMP DP  RH WIND       PRES   REMARKS
PLATTSBURGH    CLOUDY    55  47  74 S3        29.91S
6HR MIN TEMP:  52; 6HR MAX TEMP:  57;

SARANAC LAKE   CLOUDY    49  45  86 SW7       29.93S
6HR MIN TEMP:  45; 6HR MAX TEMP:  50;

MASSENA        CLOUDY    56  53  90 VRB6      29.96R
6HR MIN TEMP:  55; 6HR MAX TEMP:  60; 6HR PCP: TRACE;

OGDENSBURG*    MOCLDY    57  52  82 N6        29.95R
POTSDAM*       DRIZZLE   55  54  94 W5        29.95R
WATERTOWN      CLOUDY    57  48  72 S3        29.95S
6HR MIN TEMP:  56; 6HR MAX TEMP:  58;

FT DRUM        MOCLDY    57  47  69 SW3       29.95R
6HR MIN TEMP:  52; 6HR MAX TEMP:  58;

ALBANY         PTCLDY    48  45  89 CALM      29.98S
6HR MIN TEMP:  47; 6HR MAX TEMP:  56;

GLENS FALLS    MOCLDY    46  44  93 CALM      29.96F
6HR MIN TEMP:  43; 6HR MAX TEMP:  52;


$$
NHZ002-005-011-180700-
_____NEW HAMPSHIRE_____


CITY           SKY/WX    TMP DP  RH WIND       PRES   REMARKS
LEBANON        FOG       45  43  93 CALM      29.95S VSB 1/4
6HR MIN TEMP:  41; 6HR MAX TEMP:  48;

KEENE          CLOUDY    45  37  76 S3        29.97F VSB 1/2
6HR MIN TEMP:  45; 6HR MAX TEMP:  52;

MT WASHINGTON  FOG       34  34 100 NW38        N/A  VSB 0
6HR MIN TEMP:  32; 6HR MAX TEMP:  37;

PLYMOUTH       FOG       42  42 100 CALM      29.95S VSB 1/4
6HR MIN TEMP:  40; 6HR MAX TEMP:  49;

WHITEFIELD     CLOUDY    41  39  93 CALM      29.94S
6HR MIN TEMP:  39; 6HR MAX TEMP:  50;


$$

_____REGIONAL QUEBEC LOCATIONS_____


CITY           SKY/WX    TMP DP  RH WIND       PRES   REMARKS
MONTREAL       LGT RAIN  50  48  93 NE6       29.92R
QUEBEC CITY    LGT RAIN  48  46  93 N2        29.89R
SHERBROOKE     CLOUDY    52  48  87 SW7       29.89R

_____REGIONAL ONTARIO LOCATIONS_____


CITY           SKY/WX    TMP DP  RH WIND       PRES   REMARKS
OTTAWA         CLOUDY    48  46  93 NW13      29.97R

______KEY______
VSB  - VISIBILITY IN MILES
WCI  - WIND CHILL INDEX
HX   - HEAT INDEX
$$
NNNN


USA.gov is the U.S. government's official web portal to all federal, state and local government web resources and services.